STARLINK-3105 (49440 NORAD) Tracking and Keplerian Element Data

This shows tracking and keplerian element data for the satellite.

Feedback or suggestion? Click here.




ElementValue
Catalog49440
NameSTARLINK-3105
Epoch Orbit370
Epoch Day15.91668981
Epoch Year2022
RAAN179.3467
Inclination53.2149
Eccentricity0.0002984
Argument of Perigee13.3549
Mean Anonmoly196.764
Mean Motion15.73221091
Decay Rate0.00063275
L11 49440U 21104AJ 22015.91668981 .00063275 00000+0 45139-3 0 9994
L22 49440 53.2149 179.3467 0002984 13.3549 196.7640 15.73221091 3706

Live tracking and technical data element details for STARLINK-3105 (NORAD 49440). STARLINK-3105 can be tracked NOW for your location showing map with azimuth and elevation plus other details from your city location.

Track the satellite on the map from your city or location and see movement details for azimuth, elevation, latitude, longitude, range, height, and movement on the map or in text.







IsCatalogInMostPopularTable: catalog: 49440, numindb: 6
Update: records affected: 1



GetName: 49440 STARLINK-3105

Hit Count: updated at: Thu, 20 Jan 2022 16:11:36 GMT